ASL19H LYBE-EKCH

Flight info

Callsign ASL19H
Flight time 1h 58m
Altitude 38000
Route TISAK DCT TONDO DCT BODZA DCT MAVOR DCT ELVOT DCT PESEL DCT PENET T298 MONAK
Aircraft A319/M-SDE3FGHIRWY/LB1

Departure

Time 2026-04-25 17:38
Airport Belgrade Nikola Tesla Airport (LYBE)

Arrival

Time 2026-04-25 19:36
Airport Copenhagen Kastrup Airport (EKCH)
Time Latitude Longitude Altitude Speed Heading
2026-04-25 16:59 44.82015 20.29348 307 ft 0 kts 302°
2026-04-25 17:14 44.82015 20.29349 307 ft 0 kts 302°
2026-04-25 17:26 44.82004 20.29373 306 ft 1 kts 302°
2026-04-25 17:26 44.81989 20.29399 306 ft 4 kts 327°
2026-04-25 17:26 44.81967 20.29408 306 ft 4 kts 19°
2026-04-25 17:27 44.81945 20.29391 307 ft 4 kts 32°
2026-04-25 17:27 44.81933 20.29381 307 ft 0 kts 32°
2026-04-25 17:30 44.81937 20.29384 307 ft 1 kts 32°
2026-04-25 17:31 44.81950 20.29395 306 ft 3 kts 32°
2026-04-25 17:31 44.81970 20.29413 306 ft 4 kts 32°
2026-04-25 17:31 44.81996 20.29436 306 ft 5 kts 32°
2026-04-25 17:31 44.82027 20.29464 307 ft 6 kts 32°
2026-04-25 17:32 44.82065 20.29497 307 ft 7 kts 32°
2026-04-25 17:32 44.82106 20.29536 309 ft 7 kts 43°
2026-04-25 17:32 44.82109 20.29603 307 ft 8 kts 117°
2026-04-25 17:32 44.82076 20.29678 307 ft 11 kts 122°
2026-04-25 17:33 44.82029 20.29786 309 ft 15 kts 122°
2026-04-25 17:33 44.81965 20.29929 307 ft 19 kts 122°
2026-04-25 17:33 44.81893 20.30092 307 ft 20 kts 122°
2026-04-25 17:33 44.81816 20.30267 307 ft 22 kts 121°
2026-04-25 17:34 44.81734 20.30450 307 ft 23 kts 122°
2026-04-25 17:34 44.81647 20.30643 308 ft 24 kts 122°
2026-04-25 17:34 44.81555 20.30851 307 ft 26 kts 122°
2026-04-25 17:34 44.81462 20.31063 306 ft 25 kts 121°
2026-04-25 17:35 44.81370 20.31271 306 ft 26 kts 122°
2026-04-25 17:35 44.81272 20.31491 306 ft 27 kts 122°
2026-04-25 17:35 44.81173 20.31716 307 ft 27 kts 122°
2026-04-25 17:35 44.81080 20.31927 306 ft 22 kts 122°
2026-04-25 17:36 44.80999 20.32112 306 ft 22 kts 115°
2026-04-25 17:36 44.81058 20.32286 306 ft 23 kts 24°
2026-04-25 17:36 44.81211 20.32290 307 ft 17 kts 342°
2026-04-25 17:36 44.81266 20.32212 308 ft 0 kts 302°
2026-04-25 17:37 44.81270 20.32203 308 ft 7 kts 302°
2026-04-25 17:37 44.81394 20.31924 309 ft 61 kts 302°
2026-04-25 17:37 44.81719 20.31192 307 ft 114 kts 302°
2026-04-25 17:38 44.82225 20.30046 349 ft 156 kts 300°
2026-04-25 17:38 44.82602 20.29206 732 ft 152 kts 299°
2026-04-25 17:38 44.83408 20.27564 1413 ft 156 kts 317°
2026-04-25 17:38 44.84489 20.27048 1751 ft 179 kts 349°
2026-04-25 17:39 44.85806 20.26801 2024 ft 203 kts 349°
2026-04-25 17:39 44.87295 20.26500 2417 ft 227 kts 348°
2026-04-25 17:39 44.88869 20.26176 3160 ft 235 kts 349°
2026-04-25 17:39 44.90522 20.25833 4120 ft 237 kts 349°
2026-04-25 17:40 44.92135 20.25498 5055 ft 239 kts 349°
2026-04-25 17:40 44.93799 20.25148 5930 ft 243 kts 349°
2026-04-25 17:40 44.95476 20.24790 6851 ft 246 kts 349°
2026-04-25 17:40 44.97243 20.24408 7375 ft 265 kts 350°
2026-04-25 17:41 44.99092 20.24008 8156 ft 271 kts 350°
2026-04-25 17:41 45.00963 20.23584 9035 ft 274 kts 347°
2026-04-25 17:41 45.02726 20.22546 9879 ft 277 kts 330°
2026-04-25 17:41 45.04423 20.21145 10402 ft 293 kts 329°
2026-04-25 17:42 45.06244 20.19623 10626 ft 316 kts 329°
2026-04-25 17:42 45.08176 20.18001 11086 ft 328 kts 329°
2026-04-25 17:42 45.10155 20.16337 11752 ft 333 kts 329°
2026-04-25 17:42 45.12156 20.14656 12454 ft 337 kts 329°
2026-04-25 17:43 45.14183 20.12954 13153 ft 341 kts 329°
2026-04-25 17:43 45.16234 20.11229 13839 ft 344 kts 329°
2026-04-25 17:43 45.18298 20.09492 14448 ft 348 kts 328°
2026-04-25 17:43 45.20389 20.07731 15066 ft 351 kts 328°
2026-04-25 17:44 45.22497 20.05957 15688 ft 354 kts 328°
2026-04-25 17:44 45.24627 20.04166 16300 ft 358 kts 328°
2026-04-25 17:44 45.26778 20.02355 16881 ft 361 kts 328°
2026-04-25 17:44 45.28953 20.00523 17483 ft 365 kts 328°
2026-04-25 17:45 45.31151 19.98673 18088 ft 369 kts 328°
2026-04-25 17:45 45.31895 19.98046 18279 ft 370 kts 328°
2026-04-25 17:45 45.35598 19.94921 19187 ft 375 kts 328°
2026-04-25 17:45 45.37847 19.93018 19742 ft 377 kts 328°
2026-04-25 17:46 45.40109 19.91100 20303 ft 380 kts 328°
2026-04-25 17:46 45.42387 19.89168 20860 ft 382 kts 327°
2026-04-25 17:46 45.44679 19.87225 21421 ft 384 kts 327°
2026-04-25 17:46 45.46983 19.85275 21957 ft 387 kts 327°
2026-04-25 17:47 45.49304 19.83308 22469 ft 389 kts 327°
2026-04-25 17:47 45.51638 19.81323 22962 ft 392 kts 327°
2026-04-25 17:47 45.53988 19.79314 23460 ft 394 kts 327°
2026-04-25 17:47 45.56349 19.77295 23881 ft 397 kts 327°
2026-04-25 17:48 45.61114 19.73220 24687 ft 401 kts 327°
2026-04-25 17:48 45.63514 19.71170 25081 ft 404 kts 327°
2026-04-25 17:48 45.65933 19.69100 25473 ft 406 kts 327°
2026-04-25 17:49 45.68353 19.67022 25884 ft 407 kts 326°
2026-04-25 17:49 45.70794 19.64922 26287 ft 409 kts 326°
2026-04-25 17:49 45.73239 19.62819 26681 ft 412 kts 326°
2026-04-25 17:49 45.75702 19.60704 27068 ft 414 kts 326°
2026-04-25 17:50 45.78178 19.58578 27448 ft 416 kts 326°
2026-04-25 17:50 45.80665 19.56439 27821 ft 418 kts 326°
2026-04-25 17:50 45.83162 19.54285 28192 ft 420 kts 326°
2026-04-25 17:50 45.85674 19.52116 28552 ft 423 kts 326°
2026-04-25 17:51 45.88172 19.49956 28903 ft 425 kts 326°
2026-04-25 17:51 45.90709 19.47757 29250 ft 427 kts 326°
2026-04-25 17:51 45.93255 19.45546 29634 ft 428 kts 326°
2026-04-25 17:51 45.95811 19.43325 29987 ft 430 kts 326°
2026-04-25 17:52 45.98374 19.41101 30283 ft 432 kts 326°
2026-04-25 17:52 46.03535 19.36619 30864 ft 434 kts 326°
2026-04-25 17:52 46.06252 19.34673 31223 ft 438 kts 334°
2026-04-25 17:53 46.09064 19.33021 31643 ft 436 kts 334°
2026-04-25 17:53 46.11861 19.31364 32067 ft 433 kts 333°
2026-04-25 17:53 46.14647 19.29702 32501 ft 431 kts 333°
2026-04-25 17:53 46.17403 19.28050 32981 ft 429 kts 333°
2026-04-25 17:54 46.20156 19.26399 33457 ft 426 kts 333°
2026-04-25 17:54 46.22883 19.24767 33915 ft 424 kts 333°
2026-04-25 17:54 46.25606 19.23140 34310 ft 422 kts 333°
2026-04-25 17:54 46.28302 19.21528 34685 ft 420 kts 333°
2026-04-25 17:55 46.30998 19.19911 35053 ft 418 kts 333°
2026-04-25 17:55 46.33654 19.18313 35421 ft 417 kts 333°
2026-04-25 17:55 46.36362 19.16681 35752 ft 416 kts 333°
2026-04-25 17:55 46.39000 19.15092 36099 ft 415 kts 332°
2026-04-25 17:56 46.41661 19.13488 36420 ft 414 kts 333°
2026-04-25 17:56 46.44319 19.11885 36747 ft 413 kts 333°
2026-04-25 17:56 46.46972 19.10285 37060 ft 412 kts 333°
2026-04-25 17:56 46.49611 19.08692 37366 ft 411 kts 333°
2026-04-25 17:57 46.52249 19.07096 37668 ft 410 kts 333°
2026-04-25 17:57 46.54880 19.05502 37921 ft 410 kts 333°
2026-04-25 17:57 46.57506 19.03911 37975 ft 408 kts 333°
2026-04-25 17:58 46.62745 19.00739 38000 ft 407 kts 332°
2026-04-25 17:58 46.67089 18.98099 37978 ft 406 kts 332°
2026-04-25 17:59 46.72315 18.94907 37978 ft 408 kts 332°
2026-04-25 17:59 46.77553 18.91704 37977 ft 408 kts 332°
2026-04-25 18:00 46.82796 18.88502 37979 ft 408 kts 332°
2026-04-25 18:00 46.88050 18.85279 38002 ft 408 kts 332°
2026-04-25 18:01 46.93252 18.82083 37993 ft 408 kts 332°
2026-04-25 18:01 46.98504 18.78852 37990 ft 408 kts 332°
2026-04-25 18:02 47.03731 18.75621 37983 ft 408 kts 332°
2026-04-25 18:02 47.08960 18.72391 37984 ft 408 kts 332°
2026-04-25 18:03 47.14198 18.69148 38006 ft 408 kts 332°
2026-04-25 18:03 47.19430 18.65899 37996 ft 408 kts 332°
2026-04-25 18:04 47.24649 18.62653 37990 ft 407 kts 332°
2026-04-25 18:04 47.29865 18.59397 37986 ft 407 kts 332°
2026-04-25 18:05 47.35077 18.56141 37985 ft 407 kts 332°
2026-04-25 18:05 47.40252 18.52896 37977 ft 407 kts 332°
2026-04-25 18:06 47.45456 18.49617 37972 ft 407 kts 332°
2026-04-25 18:06 47.50665 18.46339 37969 ft 407 kts 332°
2026-04-25 18:07 47.55874 18.43050 37969 ft 407 kts 331°
2026-04-25 18:07 47.61039 18.39611 37989 ft 406 kts 330°
2026-04-25 18:08 47.66136 18.36037 37980 ft 405 kts 329°
2026-04-25 18:08 47.71234 18.32455 37960 ft 405 kts 329°
2026-04-25 18:09 47.76355 18.28894 37955 ft 406 kts 329°
2026-04-25 18:09 47.81449 18.25360 37951 ft 407 kts 329°
2026-04-25 18:10 47.86581 18.21789 37964 ft 407 kts 329°
2026-04-25 18:10 47.91721 18.18195 37956 ft 408 kts 329°
2026-04-25 18:11 47.96865 18.14594 37953 ft 408 kts 329°
2026-04-25 18:11 48.02010 18.10993 37966 ft 408 kts 330°
2026-04-25 18:12 48.07155 18.07391 37968 ft 408 kts 330°
2026-04-25 18:12 48.12285 18.03778 37995 ft 407 kts 330°
2026-04-25 18:13 48.17379 18.00175 37980 ft 406 kts 329°
2026-04-25 18:13 48.22491 17.96548 37969 ft 406 kts 329°
2026-04-25 18:14 48.30116 17.91145 37961 ft 405 kts 329°
2026-04-25 18:14 48.35224 17.87520 37977 ft 406 kts 329°
2026-04-25 18:15 48.40321 17.83882 37959 ft 406 kts 329°
2026-04-25 18:15 48.45437 17.80227 37947 ft 406 kts 329°
2026-04-25 18:16 48.50546 17.76573 37945 ft 406 kts 329°
2026-04-25 18:17 48.58210 17.71058 37938 ft 407 kts 329°
2026-04-25 18:17 48.63284 17.67398 37965 ft 407 kts 329°
2026-04-25 18:18 48.68438 17.63692 37941 ft 407 kts 329°
2026-04-25 18:18 48.73541 17.60001 37937 ft 407 kts 329°
2026-04-25 18:19 48.78644 17.56284 37936 ft 407 kts 329°
2026-04-25 18:19 48.83769 17.52614 37938 ft 408 kts 331°
2026-04-25 18:20 48.89046 17.49360 37968 ft 410 kts 334°
2026-04-25 18:20 48.94383 17.46273 37966 ft 410 kts 334°
2026-04-25 18:21 48.99657 17.43136 37968 ft 409 kts 333°
2026-04-25 18:21 49.04942 17.39899 37964 ft 409 kts 333°
2026-04-25 18:22 49.10225 17.36640 37961 ft 410 kts 333°
2026-04-25 18:22 49.15508 17.33389 37968 ft 410 kts 333°
2026-04-25 18:23 49.20801 17.30140 37971 ft 409 kts 333°
2026-04-25 18:23 49.26086 17.26885 37955 ft 409 kts 333°
2026-04-25 18:24 49.31363 17.23624 37951 ft 409 kts 333°
2026-04-25 18:24 49.36649 17.20352 37987 ft 410 kts 333°
2026-04-25 18:25 49.41924 17.17078 37966 ft 410 kts 333°
2026-04-25 18:25 49.47206 17.13785 37962 ft 409 kts 333°
2026-04-25 18:26 49.52479 17.10487 37958 ft 409 kts 333°
2026-04-25 18:26 49.57756 17.07194 37954 ft 409 kts 333°
2026-04-25 18:27 49.63038 17.03889 37983 ft 410 kts 333°
2026-04-25 18:27 49.68309 17.00572 37973 ft 409 kts 333°
2026-04-25 18:28 49.73578 16.97251 37970 ft 409 kts 333°
2026-04-25 18:28 49.78846 16.93933 37963 ft 409 kts 333°
2026-04-25 18:29 49.86729 16.88930 37962 ft 408 kts 333°
2026-04-25 18:30 49.97244 16.82259 37961 ft 408 kts 333°
2026-04-25 18:30 50.02501 16.78905 37959 ft 408 kts 333°
2026-04-25 18:31 50.07714 16.75562 37959 ft 408 kts 333°
2026-04-25 18:31 50.12963 16.72192 37988 ft 408 kts 332°
2026-04-25 18:32 50.18212 16.68824 37965 ft 408 kts 333°
2026-04-25 18:32 50.23456 16.65462 37960 ft 407 kts 332°
2026-04-25 18:33 50.28694 16.62076 37955 ft 407 kts 332°
2026-04-25 18:33 50.33926 16.58688 37956 ft 407 kts 332°
2026-04-25 18:34 50.39159 16.55295 37995 ft 407 kts 332°
2026-04-25 18:34 50.44381 16.51909 37974 ft 406 kts 332°
2026-04-25 18:35 50.49591 16.48516 37962 ft 405 kts 332°
2026-04-25 18:35 50.54797 16.45112 37943 ft 405 kts 332°
2026-04-25 18:36 50.59994 16.41711 37946 ft 405 kts 332°
2026-04-25 18:36 50.65173 16.38275 37979 ft 404 kts 332°
2026-04-25 18:37 50.70333 16.34787 37967 ft 403 kts 331°
2026-04-25 18:37 50.75480 16.31296 37961 ft 402 kts 331°
2026-04-25 18:38 50.80620 16.27816 37951 ft 402 kts 332°
2026-04-25 18:38 50.85765 16.24343 37952 ft 402 kts 332°
2026-04-25 18:39 50.90899 16.20864 37947 ft 401 kts 331°
2026-04-25 18:39 50.96033 16.17367 37961 ft 402 kts 331°
2026-04-25 18:40 51.01170 16.13863 37950 ft 402 kts 331°
2026-04-25 18:40 51.06307 16.10350 37945 ft 402 kts 331°
2026-04-25 18:41 51.11436 16.06834 37946 ft 402 kts 331°
2026-04-25 18:41 51.16541 16.03329 37944 ft 402 kts 331°
2026-04-25 18:42 51.19972 16.00965 37966 ft 402 kts 331°
2026-04-25 18:42 51.26799 15.96244 37945 ft 402 kts 331°
2026-04-25 18:43 51.31945 15.92686 37920 ft 402 kts 332°
2026-04-25 18:43 51.37076 15.89140 37919 ft 402 kts 332°
2026-04-25 18:44 51.41381 15.86157 37927 ft 402 kts 332°
2026-04-25 18:44 51.46509 15.82583 37980 ft 402 kts 331°
2026-04-25 18:45 51.51632 15.78990 37951 ft 401 kts 331°
2026-04-25 18:45 51.56749 15.75392 37951 ft 401 kts 331°
2026-04-25 18:46 51.61860 15.71812 37943 ft 401 kts 331°
2026-04-25 18:46 51.66973 15.68216 37934 ft 400 kts 331°
2026-04-25 18:47 51.72074 15.64612 37958 ft 400 kts 332°
2026-04-25 18:47 51.77163 15.61007 37954 ft 399 kts 332°
2026-04-25 18:48 51.82202 15.57432 37945 ft 398 kts 332°
2026-04-25 18:48 51.87298 15.53812 37945 ft 397 kts 332°
2026-04-25 18:49 51.92321 15.50228 37941 ft 397 kts 332°
2026-04-25 18:49 51.97375 15.46622 37930 ft 397 kts 332°
2026-04-25 18:50 52.02410 15.43019 37929 ft 392 kts 331°
2026-04-25 18:50 52.07390 15.39449 37905 ft 392 kts 331°
2026-04-25 18:51 52.11567 15.36444 37892 ft 392 kts 332°
2026-04-25 18:51 52.17353 15.32267 37919 ft 391 kts 331°
2026-04-25 18:52 52.22319 15.28671 37918 ft 391 kts 331°
2026-04-25 18:52 52.27283 15.25075 37954 ft 390 kts 331°
2026-04-25 18:53 52.31997 15.21651 37923 ft 386 kts 331°
2026-04-25 18:53 52.36909 15.18083 37926 ft 387 kts 331°
2026-04-25 18:54 52.44046 15.12869 37922 ft 386 kts 331°
2026-04-25 18:55 52.48954 15.09270 37923 ft 386 kts 331°
2026-04-25 18:55 52.53851 15.05667 37916 ft 385 kts 331°
2026-04-25 18:56 52.58735 15.02074 37921 ft 385 kts 331°
2026-04-25 18:56 52.63620 14.98466 37924 ft 384 kts 331°
2026-04-25 18:57 52.68462 14.94877 37921 ft 384 kts 331°
2026-04-25 18:57 52.73330 14.91271 37921 ft 384 kts 331°
2026-04-25 18:58 52.78209 14.87649 37927 ft 384 kts 331°
2026-04-25 18:58 52.85486 14.82208 37924 ft 380 kts 330°
2026-04-25 18:59 52.95134 14.74981 37920 ft 381 kts 330°
2026-04-25 19:00 53.02098 14.68858 37931 ft 375 kts 321°
2026-04-25 19:01 53.08499 14.61342 37925 ft 375 kts 321°
2026-04-25 19:01 53.12753 14.56311 37936 ft 374 kts 320°
2026-04-25 19:02 53.19112 14.48783 37922 ft 374 kts 320°
2026-04-25 19:03 53.24074 14.42883 37908 ft 375 kts 321°
2026-04-25 19:03 53.29716 14.36142 37919 ft 374 kts 320°
2026-04-25 19:04 53.36068 14.28548 37935 ft 374 kts 320°
2026-04-25 19:05 53.44508 14.18376 37929 ft 372 kts 320°
2026-04-25 19:06 53.48717 14.13320 37933 ft 373 kts 320°
2026-04-25 19:06 53.55062 14.05721 37912 ft 374 kts 320°
2026-04-25 19:07 53.61185 13.98356 37930 ft 374 kts 320°
2026-04-25 19:08 53.67525 13.90686 37926 ft 374 kts 320°
2026-04-25 19:09 53.75249 13.81289 37925 ft 373 kts 320°
2026-04-25 19:10 53.82286 13.72685 37922 ft 374 kts 320°
2026-04-25 19:10 53.86510 13.67521 37889 ft 375 kts 320°
2026-04-25 19:11 53.90728 13.62345 37894 ft 375 kts 320°
2026-04-25 19:11 53.94925 13.57176 37901 ft 375 kts 320°
2026-04-25 19:12 53.99152 13.51954 37372 ft 377 kts 320°
2026-04-25 19:12 54.01270 13.49332 36813 ft 376 kts 320°
2026-04-25 19:12 54.03374 13.46727 36290 ft 374 kts 320°
2026-04-25 19:12 54.05472 13.44131 35791 ft 371 kts 320°
2026-04-25 19:13 54.07550 13.41554 35296 ft 368 kts 320°
2026-04-25 19:13 54.09633 13.38965 34806 ft 364 kts 320°
2026-04-25 19:13 54.11668 13.36434 34320 ft 360 kts 320°
2026-04-25 19:13 54.13677 13.33933 33845 ft 356 kts 320°
2026-04-25 19:14 54.15668 13.31450 33262 ft 353 kts 321°
2026-04-25 19:14 54.16311 13.30646 33086 ft 353 kts 321°
2026-04-25 19:14 54.19834 13.27141 32136 ft 359 kts 333°
2026-04-25 19:14 54.22196 13.25718 31466 ft 359 kts 334°
2026-04-25 19:15 54.24543 13.24340 30928 ft 355 kts 334°
2026-04-25 19:15 54.26867 13.22991 30388 ft 351 kts 334°
2026-04-25 19:15 54.29166 13.21661 29943 ft 346 kts 333°
2026-04-25 19:15 54.31443 13.20337 29066 ft 347 kts 333°
2026-04-25 19:16 54.33724 13.19000 28378 ft 344 kts 333°
2026-04-25 19:16 54.35981 13.17671 27711 ft 341 kts 333°
2026-04-25 19:16 54.38215 13.16348 27055 ft 338 kts 333°
2026-04-25 19:16 54.40439 13.15027 26281 ft 339 kts 333°
2026-04-25 19:17 54.42662 13.13706 25616 ft 337 kts 332°
2026-04-25 19:17 54.44863 13.12399 24976 ft 334 kts 332°
2026-04-25 19:17 54.47049 13.11103 24361 ft 331 kts 332°
2026-04-25 19:17 54.49216 13.09819 23771 ft 328 kts 332°
2026-04-25 19:18 54.51361 13.08548 23131 ft 325 kts 332°
2026-04-25 19:18 54.53491 13.07281 22464 ft 322 kts 332°
2026-04-25 19:18 54.55602 13.06024 21830 ft 319 kts 332°
2026-04-25 19:18 54.57691 13.04775 21361 ft 316 kts 332°
2026-04-25 19:19 54.59745 13.03547 21059 ft 308 kts 332°
2026-04-25 19:19 54.61747 13.02355 20699 ft 301 kts 332°
2026-04-25 19:19 54.63710 13.01184 20324 ft 296 kts 332°
2026-04-25 19:19 54.64366 13.00792 20208 ft 295 kts 332°
2026-04-25 19:20 54.67560 12.98871 19586 ft 291 kts 332°
2026-04-25 19:20 54.69469 12.97721 19201 ft 290 kts 332°
2026-04-25 19:20 54.71367 12.96576 18825 ft 288 kts 332°
2026-04-25 19:20 54.73255 12.95437 18442 ft 287 kts 332°
2026-04-25 19:21 54.75136 12.94301 18032 ft 285 kts 332°
2026-04-25 19:21 54.78870 12.92035 17220 ft 284 kts 332°
2026-04-25 19:21 54.80729 12.90903 16822 ft 283 kts 332°
2026-04-25 19:22 54.82588 12.89777 16441 ft 283 kts 333°
2026-04-25 19:22 54.84443 12.88656 16111 ft 282 kts 333°
2026-04-25 19:22 54.88147 12.86418 15259 ft 282 kts 334°
2026-04-25 19:23 54.90001 12.85295 14850 ft 282 kts 334°
2026-04-25 19:23 54.93710 12.83036 14048 ft 282 kts 334°
2026-04-25 19:23 54.95563 12.81907 13641 ft 283 kts 335°
2026-04-25 19:24 54.97421 12.80773 13206 ft 283 kts 335°
2026-04-25 19:24 54.99281 12.79635 12793 ft 283 kts 335°
2026-04-25 19:24 55.02989 12.77376 11990 ft 282 kts 335°
2026-04-25 19:25 55.06693 12.75105 11179 ft 282 kts 336°
2026-04-25 19:25 55.08545 12.73968 10776 ft 282 kts 336°
2026-04-25 19:25 55.10396 12.72831 10368 ft 282 kts 336°
2026-04-25 19:26 55.12209 12.71721 10219 ft 270 kts 337°
2026-04-25 19:26 55.13945 12.70662 10050 ft 258 kts 337°
2026-04-25 19:26 55.15050 12.69988 9940 ft 252 kts 337°
2026-04-25 19:26 55.16683 12.68985 9755 ft 247 kts 336°
2026-04-25 19:27 55.18301 12.67978 9616 ft 246 kts 335°
2026-04-25 19:27 55.19306 12.67094 9520 ft 244 kts 327°
2026-04-25 19:27 55.21272 12.65089 8879 ft 247 kts 328°
2026-04-25 19:27 55.22773 12.63556 8151 ft 250 kts 328°
2026-04-25 19:28 55.24272 12.62023 7461 ft 249 kts 329°
2026-04-25 19:28 55.25752 12.60505 6844 ft 245 kts 329°
2026-04-25 19:28 55.27215 12.59003 6237 ft 242 kts 329°
2026-04-25 19:28 55.28660 12.57516 5587 ft 239 kts 330°
2026-04-25 19:29 55.30088 12.56043 4964 ft 237 kts 330°
2026-04-25 19:29 55.31504 12.54582 4326 ft 235 kts 330°
2026-04-25 19:29 55.32907 12.53135 3690 ft 233 kts 330°
2026-04-25 19:29 55.34300 12.51717 3171 ft 227 kts 330°
2026-04-25 19:30 55.35611 12.50406 3038 ft 207 kts 330°
2026-04-25 19:30 55.36811 12.49212 2936 ft 189 kts 330°
2026-04-25 19:30 55.37948 12.48294 2848 ft 173 kts 341°
2026-04-25 19:30 55.39084 12.47839 2743 ft 164 kts 345°
2026-04-25 19:31 55.40189 12.47469 2628 ft 160 kts 345°
2026-04-25 19:31 55.41271 12.47120 2559 ft 155 kts 345°
2026-04-25 19:31 55.42324 12.46788 2455 ft 153 kts 345°
2026-04-25 19:31 55.43369 12.46465 2351 ft 152 kts 345°
2026-04-25 19:32 55.44400 12.46152 2244 ft 153 kts 345°
2026-04-25 19:32 55.45464 12.45824 2139 ft 154 kts 345°
2026-04-25 19:32 55.46503 12.45505 2064 ft 154 kts 345°
2026-04-25 19:32 55.47220 12.45287 2015 ft 155 kts 345°
2026-04-25 19:33 55.48648 12.45021 1982 ft 161 kts 358°
2026-04-25 19:33 55.49724 12.45756 1979 ft 176 kts 25°
2026-04-25 19:33 55.50665 12.47173 1988 ft 178 kts 30°
2026-04-25 19:33 55.51596 12.48612 1961 ft 178 kts 30°
2026-04-25 19:34 55.52527 12.50045 1793 ft 178 kts 31°
2026-04-25 19:34 55.53460 12.51480 1577 ft 178 kts 31°
2026-04-25 19:34 55.54382 12.52902 1333 ft 172 kts 31°
2026-04-25 19:34 55.55267 12.54266 1099 ft 166 kts 31°
2026-04-25 19:35 55.56088 12.55539 869 ft 145 kts 31°
2026-04-25 19:35 55.56799 12.56637 687 ft 128 kts 31°
2026-04-25 19:35 55.57443 12.57627 512 ft 120 kts 33°
2026-04-25 19:35 55.58062 12.58580 367 ft 116 kts 29°
2026-04-25 19:36 55.58680 12.59527 210 ft 120 kts 35°
2026-04-25 19:36 55.59310 12.60499 49 ft 120 kts 34°
2026-04-25 19:36 55.59863 12.61326 22 ft 88 kts 39°
2026-04-25 19:36 55.60191 12.61848 20 ft 39 kts 41°
2026-04-25 19:37 55.60324 12.62054 17 ft 29 kts 40°
2026-04-25 19:37 55.60466 12.62243 22 ft 22 kts 28°
2026-04-25 19:37 55.60611 12.62336 25 ft 17 kts 12°
2026-04-25 19:37 55.60672 12.62358 25 ft 0 kts 11°
2026-04-25 19:38 55.60677 12.62359 25 ft 3 kts 11°
2026-04-25 19:38 55.60728 12.62377 23 ft 9 kts 11°
2026-04-25 19:38 55.60736 12.62380 23 ft 0 kts 11°
2026-04-25 19:38 55.60755 12.62386 23 ft 6 kts 11°
2026-04-25 19:39 55.60811 12.62438 24 ft 12 kts 37°
2026-04-25 19:39 55.60894 12.62555 20 ft 19 kts 39°
2026-04-25 19:39 55.61004 12.62742 19 ft 24 kts 45°
2026-04-25 19:39 55.61131 12.62963 21 ft 26 kts 44°
2026-04-25 19:40 55.61240 12.63093 23 ft 17 kts 42°
2026-04-25 19:40 55.61324 12.63227 23 ft 16 kts 41°
2026-04-25 19:40 55.61421 12.63375 20 ft 19 kts 40°
2026-04-25 19:40 55.61535 12.63551 17 ft 23 kts 44°
2026-04-25 19:41 55.61631 12.63704 19 ft 17 kts 39°
2026-04-25 19:41 55.61734 12.63857 21 ft 21 kts 41°
2026-04-25 19:41 55.61849 12.64037 21 ft 20 kts 40°
2026-04-25 19:41 55.61933 12.64125 21 ft 23 kts 23°
2026-04-25 19:42 55.62125 12.64284 19 ft 23 kts 26°
2026-04-25 19:42 55.62234 12.64381 17 ft 16 kts 39°
2026-04-25 19:42 55.62260 12.64444 19 ft 0 kts 56°
2026-04-25 19:42 55.62261 12.64449 19 ft 1 kts 61°
2026-04-25 19:43 55.62277 12.64508 21 ft 9 kts 65°
2026-04-25 19:43 55.62310 12.64652 22 ft 14 kts 67°
2026-04-25 19:43 55.62351 12.64834 24 ft 17 kts 85°
2026-04-25 19:43 55.62297 12.65018 23 ft 17 kts 123°
2026-04-25 19:44 55.62306 12.65185 22 ft 15 kts 26°
2026-04-25 19:44 55.62411 12.65189 21 ft 16 kts 356°
2026-04-25 19:44 55.62480 12.65183 20 ft 0 kts 357°
2026-04-25 19:45 55.62483 12.65183 20 ft 2 kts 357°
2026-04-25 19:45 55.62520 12.65180 19 ft 9 kts 357°
2026-04-25 19:45 55.62566 12.65144 19 ft 7 kts 301°
2026-04-25 19:46 55.62571 12.65072 20 ft 3 kts 272°
2026-04-25 19:46 55.62572 12.65047 21 ft 2 kts 275°
2026-04-25 19:46 55.62573 12.65039 20 ft 0 kts 275°